Time,TemperatureF,DewpointF,PressureIn,WindDirection,WindDirectionDegrees,WindSpeedMPH,WindSpeedGustMPH,Humidity,HourlyPrecipIn,Conditions,Clouds,dailyrainin,SolarRadiationWatts/m^2,SoftwareType,DateUTC
2013-01-09 00:03:00,76.0,72.0,-100.00,ESE,113,5.0,12.0,87,0.00,,,-99.99,0.000000,,2013-01-09 05:03:00,
2013-01-09 00:12:00,76.0,72.0,-100.00,ESE,113,5.0,12.0,87,0.00,,,-99.99,0.000000,,2013-01-09 05:12:00,
2013-01-09 00:22:00,76.0,72.0,-100.00,ESE,113,5.0,12.0,87,0.00,,,-99.99,0.000000,,2013-01-09 05:22:00,
2013-01-09 00:33:00,76.0,72.0,-100.00,ESE,113,5.0,12.0,87,0.00,,,-99.99,0.000000,,2013-01-09 05:33:00,
2013-01-09 00:53:00,77.0,69.0,-100.00,SE,131,6.0,14.0,77,0.00,,,-99.99,0.000000,,2013-01-09 05:53:00,
2013-01-09 01:02:00,77.0,69.0,-100.00,SE,131,6.0,14.0,77,0.00,,,-99.99,0.000000,,2013-01-09 06:02:00,
2013-01-09 01:12:00,77.0,69.0,-100.00,SE,131,6.0,14.0,77,0.00,,,-99.99,0.000000,,2013-01-09 06:12:00,
2013-01-09 01:22:00,77.0,69.0,-100.00,SE,131,6.0,14.0,77,0.00,,,-99.99,0.000000,,2013-01-09 06:22:00,
2013-01-09 01:32:00,77.0,69.0,-100.00,SE,131,6.0,14.0,77,0.00,,,-99.99,0.000000,,2013-01-09 06:32:00,
2013-01-09 01:53:00,77.0,70.0,-100.00,ESE,120,7.0,17.0,80,0.00,,,0.00,0.000000,,2013-01-09 06:53:00,
2013-01-09 02:02:00,77.0,70.0,-100.00,ESE,120,7.0,17.0,80,0.00,,,0.00,0.000000,,2013-01-09 07:02:00,
2013-01-09 02:12:00,77.0,70.0,-100.00,ESE,120,7.0,17.0,80,0.00,,,0.00,0.000000,,2013-01-09 07:12:00,
2013-01-09 02:22:00,77.0,70.0,-100.00,ESE,120,7.0,17.0,80,0.00,,,0.00,0.000000,,2013-01-09 07:22:00,
2013-01-09 02:32:00,77.0,70.0,-100.00,ESE,120,7.0,17.0,80,0.00,,,0.00,0.000000,,2013-01-09 07:32:00,
2013-01-09 02:52:00,76.0,70.0,-100.00,ESE,121,6.0,12.0,82,0.00,,,0.00,0.000000,,2013-01-09 07:52:00,
2013-01-09 03:02:00,76.0,70.0,-100.00,ESE,121,6.0,12.0,82,0.00,,,0.00,0.000000,,2013-01-09 08:02:00,
2013-01-09 03:12:00,76.0,70.0,-100.00,ESE,121,6.0,12.0,82,0.00,,,0.00,0.000000,,2013-01-09 08:12:00,
2013-01-09 03:22:00,76.0,70.0,-100.00,ESE,121,6.0,12.0,82,0.00,,,0.00,0.000000,,2013-01-09 08:22:00,
2013-01-09 03:32:00,76.0,70.0,-100.00,ESE,121,6.0,12.0,82,0.00,,,0.00,0.000000,,2013-01-09 08:32:00,
2013-01-09 03:53:00,77.0,71.0,-100.00,ESE,117,7.0,13.0,82,0.00,,,0.00,0.000000,,2013-01-09 08:53:00,
2013-01-09 04:12:00,77.0,71.0,-100.00,ESE,117,7.0,13.0,82,0.00,,,0.00,0.000000,,2013-01-09 09:12:00,
2013-01-09 04:22:00,77.0,71.0,-100.00,ESE,117,7.0,13.0,82,0.00,,,0.00,0.000000,,2013-01-09 09:22:00,
2013-01-09 04:32:00,77.0,71.0,-100.00,ESE,117,7.0,13.0,82,0.00,,,0.00,0.000000,,2013-01-09 09:32:00,
2013-01-09 04:53:00,77.0,71.0,-100.00,ESE,118,6.0,14.0,81,0.00,,,0.00,0.000000,,2013-01-09 09:53:00,
2013-01-09 05:02:00,77.0,71.0,-100.00,ESE,118,6.0,14.0,81,0.00,,,0.00,0.000000,,2013-01-09 10:02:00,
2013-01-09 05:12:00,77.0,71.0,-100.00,ESE,118,6.0,14.0,81,0.00,,,0.00,0.000000,,2013-01-09 10:12:00,
2013-01-09 05:22:00,77.0,71.0,-100.00,ESE,118,6.0,14.0,81,0.00,,,0.00,0.000000,,2013-01-09 10:22:00,
2013-01-09 05:32:00,77.0,71.0,-100.00,ESE,118,6.0,14.0,81,0.00,,,0.00,0.000000,,2013-01-09 10:32:00,
2013-01-09 05:52:00,76.0,71.0,-100.00,ESE,105,5.0,12.0,85,0.00,,,0.00,0.000000,,2013-01-09 10:52:00,
2013-01-09 06:02:00,76.0,71.0,-100.00,ESE,105,5.0,12.0,85,0.00,,,0.00,0.000000,,2013-01-09 11:02:00,
2013-01-09 06:12:00,76.0,71.0,-100.00,ESE,105,5.0,12.0,85,0.00,,,0.00,0.000000,,2013-01-09 11:12:00,
2013-01-09 06:22:00,76.0,71.0,-100.00,ESE,105,5.0,12.0,85,0.00,,,0.00,0.000000,,2013-01-09 11:22:00,
2013-01-09 06:33:00,76.0,71.0,-100.00,ESE,105,5.0,12.0,85,0.00,,,0.00,0.000000,,2013-01-09 11:33:00,
2013-01-09 06:53:00,76.0,72.0,-100.00,East,101,6.0,13.0,87,0.00,,,0.00,0.000000,,2013-01-09 11:53:00,
2013-01-09 07:03:00,76.0,72.0,-100.00,East,101,6.0,13.0,87,0.00,,,0.00,0.000000,,2013-01-09 12:03:00,
2013-01-09 07:12:00,76.0,72.0,-100.00,East,101,6.0,13.0,87,0.00,,,0.00,0.000000,,2013-01-09 12:12:00,
2013-01-09 07:23:00,76.0,72.0,-100.00,East,101,6.0,13.0,87,0.00,,,0.00,0.000000,,2013-01-09 12:23:00,
2013-01-09 07:33:00,76.0,72.0,-100.00,East,101,6.0,13.0,87,0.00,,,0.00,0.000000,,2013-01-09 12:33:00,
2013-01-09 08:03:00,76.0,71.0,-100.00,ESE,112,7.0,12.0,85,0.00,,,0.00,6.000000,,2013-01-09 13:03:00,
2013-01-09 08:12:00,76.0,71.0,-100.00,ESE,112,7.0,12.0,85,0.00,,,0.00,6.000000,,2013-01-09 13:12:00,
2013-01-09 08:23:00,76.0,71.0,-100.00,ESE,112,7.0,12.0,85,0.00,,,0.00,6.000000,,2013-01-09 13:23:00,
2013-01-09 08:33:00,76.0,71.0,-100.00,ESE,112,7.0,12.0,85,0.00,,,0.00,6.000000,,2013-01-09 13:33:00,
2013-01-09 09:03:00,79.0,72.0,-100.00,ESE,114,7.0,14.0,78,0.00,,,0.00,104.000000,,2013-01-09 14:03:00,
2013-01-09 09:12:00,79.0,72.0,-100.00,ESE,114,7.0,14.0,78,0.00,,,0.00,104.000000,,2013-01-09 14:12:00,
2013-01-09 09:23:00,79.0,72.0,-100.00,ESE,114,7.0,14.0,78,0.00,,,0.00,104.000000,,2013-01-09 14:23:00,
2013-01-09 09:33:00,79.0,72.0,-100.00,ESE,114,7.0,14.0,78,0.00,,,0.00,104.000000,,2013-01-09 14:33:00,
2013-01-09 09:53:00,81.0,72.0,-100.00,ESE,113,7.0,16.0,73,0.00,,,0.00,271.000000,,2013-01-09 14:53:00,
2013-01-09 10:04:00,81.0,72.0,-100.00,ESE,113,7.0,16.0,73,0.00,,,0.00,271.000000,,2013-01-09 15:04:00,
2013-01-09 10:13:00,81.0,72.0,-100.00,ESE,113,7.0,16.0,73,0.00,,,0.00,271.000000,,2013-01-09 15:13:00,
2013-01-09 10:23:00,81.0,72.0,-100.00,ESE,113,7.0,16.0,73,0.00,,,0.00,271.000000,,2013-01-09 15:23:00,
2013-01-09 10:33:00,81.0,72.0,-100.00,ESE,113,7.0,16.0,73,0.00,,,0.00,271.000000,,2013-01-09 15:33:00,
2013-01-09 10:53:00,83.0,73.0,-100.00,ESE,110,7.0,18.0,71,0.00,,,0.00,441.000000,,2013-01-09 15:53:00,
2013-01-09 11:04:00,83.0,73.0,-100.00,ESE,110,7.0,18.0,71,0.00,,,0.00,441.000000,,2013-01-09 16:04:00,
2013-01-09 11:12:00,83.0,73.0,-100.00,ESE,110,7.0,18.0,71,0.00,,,0.00,441.000000,,2013-01-09 16:12:00,
2013-01-09 11:23:00,83.0,73.0,-100.00,ESE,110,7.0,18.0,71,0.00,,,0.00,441.000000,,2013-01-09 16:23:00,
2013-01-09 11:33:00,83.0,73.0,-100.00,ESE,110,7.0,18.0,71,0.00,,,0.00,441.000000,,2013-01-09 16:33:00,
2013-01-09 12:03:00,83.0,73.0,-100.00,ESE,104,8.0,19.0,71,0.00,,,0.00,572.000000,,2013-01-09 17:03:00,
2013-01-09 12:12:00,83.0,73.0,-100.00,ESE,104,8.0,19.0,71,0.00,,,0.00,572.000000,,2013-01-09 17:12:00,
2013-01-09 12:23:00,83.0,73.0,-100.00,ESE,104,8.0,19.0,71,0.00,,,0.00,572.000000,,2013-01-09 17:23:00,
2013-01-09 12:33:00,83.0,73.0,-100.00,ESE,104,8.0,19.0,71,0.00,,,0.00,572.000000,,2013-01-09 17:33:00,
2013-01-09 12:53:00,83.0,72.0,-100.00,ESE,102,9.0,22.0,69,0.00,,,0.00,620.000000,,2013-01-09 17:53:00,
2013-01-09 13:03:00,83.0,72.0,-100.00,ESE,102,9.0,22.0,69,0.00,,,0.00,620.000000,,2013-01-09 18:03:00,
2013-01-09 13:13:00,83.0,72.0,-100.00,ESE,102,9.0,22.0,69,0.00,,,0.00,620.000000,,2013-01-09 18:13:00,
2013-01-09 13:24:00,83.0,72.0,-100.00,ESE,102,9.0,22.0,69,0.00,,,0.00,620.000000,,2013-01-09 18:24:00,
2013-01-09 13:33:00,83.0,72.0,-100.00,ESE,102,9.0,22.0,69,0.00,,,0.00,620.000000,,2013-01-09 18:33:00,
2013-01-09 13:53:00,83.0,71.0,-100.00,ESE,108,8.0,18.0,68,0.00,,,0.00,564.000000,,2013-01-09 18:53:00,
2013-01-09 14:03:00,83.0,71.0,-100.00,ESE,108,8.0,18.0,68,0.00,,,0.00,564.000000,,2013-01-09 19:03:00,
2013-01-09 14:13:00,83.0,71.0,-100.00,ESE,108,8.0,18.0,68,0.00,,,0.00,564.000000,,2013-01-09 19:13:00,
2013-01-09 14:23:00,83.0,71.0,-100.00,ESE,108,8.0,18.0,68,0.00,,,0.00,564.000000,,2013-01-09 19:23:00,
2013-01-09 14:33:00,83.0,71.0,-100.00,ESE,108,8.0,18.0,68,0.00,,,0.00,564.000000,,2013-01-09 19:33:00,
2013-01-09 15:03:00,82.0,72.0,-100.00,ESE,110,8.0,18.0,71,0.00,,,0.00,433.000000,,2013-01-09 20:03:00,
2013-01-09 15:12:00,82.0,72.0,-100.00,ESE,110,8.0,18.0,71,0.00,,,0.00,433.000000,,2013-01-09 20:12:00,
2013-01-09 15:23:00,82.0,72.0,-100.00,ESE,110,8.0,18.0,71,0.00,,,0.00,433.000000,,2013-01-09 20:23:00,
2013-01-09 15:33:00,82.0,72.0,-100.00,ESE,110,8.0,18.0,71,0.00,,,0.00,433.000000,,2013-01-09 20:33:00,
2013-01-09 15:53:00,82.0,72.0,-100.00,ESE,108,8.0,17.0,72,0.00,,,0.00,387.000000,,2013-01-09 20:53:00,
2013-01-09 16:04:00,82.0,72.0,-100.00,ESE,108,8.0,17.0,72,0.00,,,0.00,387.000000,,2013-01-09 21:04:00,
2013-01-09 16:13:00,82.0,72.0,-100.00,ESE,108,8.0,17.0,72,0.00,,,0.00,387.000000,,2013-01-09 21:13:00,
2013-01-09 16:23:00,82.0,72.0,-100.00,ESE,108,8.0,17.0,72,0.00,,,0.00,387.000000,,2013-01-09 21:23:00,
2013-01-09 16:33:00,82.0,72.0,-100.00,ESE,108,8.0,17.0,72,0.00,,,0.00,387.000000,,2013-01-09 21:33:00,
2013-01-09 16:53:00,80.0,72.0,-100.00,ESE,116,8.0,20.0,76,0.00,,,0.00,200.000000,,2013-01-09 21:53:00,
2013-01-09 17:03:00,80.0,72.0,-100.00,ESE,116,8.0,20.0,76,0.00,,,0.00,200.000000,,2013-01-09 22:03:00,
2013-01-09 17:12:00,80.0,72.0,-100.00,ESE,116,8.0,20.0,76,0.00,,,0.00,200.000000,,2013-01-09 22:12:00,
2013-01-09 17:23:00,80.0,72.0,-100.00,ESE,116,8.0,20.0,76,0.00,,,0.00,200.000000,,2013-01-09 22:23:00,
2013-01-09 17:33:00,80.0,72.0,-100.00,ESE,116,8.0,20.0,76,0.00,,,0.00,200.000000,,2013-01-09 22:33:00,
2013-01-09 18:03:00,78.0,71.0,-100.00,ESE,114,7.0,17.0,80,0.00,,,0.00,91.000000,,2013-01-09 23:03:00,
2013-01-09 18:13:00,78.0,71.0,-100.00,ESE,114,7.0,17.0,80,0.00,,,0.00,91.000000,,2013-01-09 23:13:00,
2013-01-09 18:23:00,78.0,71.0,-100.00,ESE,114,7.0,17.0,80,0.00,,,0.00,91.000000,,2013-01-09 23:23:00,
2013-01-09 18:33:00,78.0,71.0,-100.00,ESE,114,7.0,17.0,80,0.00,,,0.00,91.000000,,2013-01-09 23:33:00,
2013-01-09 18:53:00,78.0,72.0,-100.00,ESE,107,7.0,16.0,82,0.00,,,0.00,4.000000,,2013-01-09 23:53:00,
2013-01-09 19:03:00,78.0,72.0,-100.00,ESE,107,7.0,16.0,82,0.00,,,0.00,4.000000,,2013-01-10 00:03:00,
2013-01-09 19:12:00,78.0,72.0,-100.00,ESE,107,7.0,16.0,82,0.00,,,0.00,4.000000,,2013-01-10 00:12:00,
2013-01-09 19:22:00,78.0,72.0,-100.00,ESE,107,7.0,16.0,82,0.00,,,0.00,4.000000,,2013-01-10 00:22:00,
2013-01-09 19:32:00,78.0,72.0,-100.00,ESE,107,7.0,16.0,82,0.00,,,0.00,4.000000,,2013-01-10 00:32:00,
2013-01-09 20:03:00,77.0,71.0,-100.00,ESE,112,7.0,15.0,82,0.00,,,0.00,0.000000,,2013-01-10 01:03:00,
2013-01-09 20:12:00,77.0,71.0,-100.00,ESE,112,7.0,15.0,82,0.00,,,0.00,0.000000,,2013-01-10 01:12:00,
2013-01-09 20:22:00,77.0,71.0,-100.00,ESE,112,7.0,15.0,82,0.00,,,0.00,0.000000,,2013-01-10 01:22:00,
2013-01-09 20:33:00,77.0,71.0,-100.00,ESE,112,7.0,15.0,82,0.00,,,0.00,0.000000,,2013-01-10 01:33:00,
2013-01-09 20:53:00,77.0,71.0,-100.00,ESE,115,8.0,18.0,82,0.00,,,0.00,0.000000,,2013-01-10 01:53:00,
2013-01-09 21:03:00,77.0,71.0,-100.00,ESE,115,8.0,18.0,82,0.00,,,0.00,0.000000,,2013-01-10 02:03:00,
2013-01-09 21:13:00,77.0,71.0,-100.00,ESE,115,8.0,18.0,82,0.00,,,0.00,0.000000,,2013-01-10 02:13:00,
2013-01-09 21:22:00,77.0,71.0,-100.00,ESE,115,8.0,18.0,82,0.00,,,0.00,0.000000,,2013-01-10 02:22:00,
2013-01-09 21:32:00,77.0,71.0,-100.00,ESE,115,8.0,18.0,82,0.00,,,0.00,0.000000,,2013-01-10 02:32:00,
2013-01-09 22:03:00,77.0,70.0,-100.00,ESE,120,8.0,18.0,80,0.00,,,0.00,0.000000,,2013-01-10 03:03:00,
2013-01-09 22:12:00,77.0,70.0,-100.00,ESE,120,8.0,18.0,80,0.00,,,0.00,0.000000,,2013-01-10 03:12:00,
2013-01-09 22:22:00,77.0,70.0,-100.00,ESE,120,8.0,18.0,80,0.00,,,0.00,0.000000,,2013-01-10 03:22:00,
2013-01-09 22:33:00,77.0,70.0,-100.00,ESE,120,8.0,18.0,80,0.00,,,0.00,0.000000,,2013-01-10 03:33:00,
2013-01-09 22:53:00,77.0,71.0,-100.00,ESE,117,9.0,17.0,81,0.00,,,0.00,0.000000,,2013-01-10 03:53:00,
2013-01-09 23:02:00,77.0,71.0,-100.00,ESE,117,9.0,17.0,81,0.00,,,0.00,0.000000,,2013-01-10 04:02:00,
2013-01-09 23:12:00,77.0,71.0,-100.00,ESE,117,9.0,17.0,81,0.00,,,0.00,0.000000,,2013-01-10 04:12:00,
2013-01-09 23:22:00,77.0,71.0,-100.00,ESE,117,9.0,17.0,81,0.00,,,0.00,0.000000,,2013-01-10 04:22:00,
2013-01-09 23:32:00,77.0,71.0,-100.00,ESE,117,9.0,17.0,81,0.00,,,0.00,0.000000,,2013-01-10 04:32:00,